Weather History for Ruston, LA

Change the Weather History Date:

Monday, January 21, 2013

  Actual Average Record
Temperature  
Mean Temperature 44 °F -  
Max Temperature 52 °F 51 °F 80 °F (2003)
Min Temperature 35 °F 31 °F 6 °F (1985)
Degree Days  
Heating Degree Days 22    
Moisture  
Dew Point 35 °F    
Average Humidity 75    
Maximum Humidity 100    
Minimum Humidity 43    
Precipitation  
Precipitation 0.00 in - - ()
Sea Level Pressure  
Sea Level Pressure 30.27 in    
Wind  
Wind Speed 3 mph (NE)    
Max Wind Speed 14 mph    
Max Gust Speed 17 mph    
Visibility 10 miles    
Events      
Averages and records for this station are not official NWS values.
T = Trace of Precipitation, MM = Missing Value Source: NWS Daily Summary

Daily Weather History Graph

Daily Weather History Graph

Search for Another Location

Airport:

Trip Planner

Search our weather history database for the weather conditions in past years. The results will help you decide how hot, cold, wet, or windy it might be!

Date:

Astronomy

Jan. 21, 2013 Rise Set
Actual Time 7:10 AM CST 5:33 PM CST
Civil Twilight 6:44 AM CST 5:59 PM CST
Nautical Twilight 6:14 AM CST 6:29 PM CST
Astronomical Twilight 5:44 AM CST 6:58 PM CST
Moon 1:14 PM CST (1/21) 2:38 AM CST (1/21)
Length of Visible Light 11h 15m
Length of Day
10h 22m
Waxing Gibbous, 75% of the Moon is Illuminated
Jan 21
Waxing Gibbous
Jan 26
Full
Feb 3
Last Quarter
Feb 10
New
Feb 17
First Quarter

Hourly Weather History & Observations

Time (CST) Temp. Windchill Dew Point Humidity Pressure Visibility Wind Dir Wind Speed Gust Speed Precip Events Conditions
12:15 AM 41.0 °F - 41.0 °F 100% 30.19 in 10.0 mi Calm Calm - N/A   Clear
12:35 AM 39.0 °F - 39.0 °F 100% 30.19 in 10.0 mi Calm Calm - N/A   Clear
12:55 AM 38.7 °F - 38.7 °F 100% 30.19 in 10.0 mi Calm Calm - N/A   Clear
1:15 AM 38.7 °F - 38.7 °F 100% 30.19 in 10.0 mi Calm Calm - N/A   Clear
1:35 AM 38.3 °F - 38.3 °F 100% 30.19 in 10.0 mi Calm Calm - N/A   Clear
1:55 AM 37.6 °F - 37.6 °F 100% 30.19 in 10.0 mi Calm Calm - N/A   Clear
2:15 AM 37.6 °F - 37.6 °F 100% 30.20 in 10.0 mi Calm Calm - N/A   Clear
2:35 AM 37.4 °F - 37.4 °F 100% 30.21 in 10.0 mi Calm Calm - N/A   Clear
2:55 AM 37.2 °F - 37.2 °F 100% 30.20 in 10.0 mi Calm Calm - N/A   Clear
3:15 AM 37.9 °F - 37.9 °F 100% 30.20 in 10.0 mi Calm Calm - N/A   Clear
3:55 AM 36.5 °F - 36.5 °F 100% 30.20 in 10.0 mi Calm Calm - N/A   Clear
4:15 AM 36.1 °F - 36.1 °F 100% 30.20 in 10.0 mi Calm Calm - N/A   Clear
4:35 AM 36.5 °F - 36.5 °F 100% 30.20 in 10.0 mi Calm Calm - N/A   Clear
4:55 AM 37.6 °F - 37.6 °F 100% 30.21 in 7.0 mi Calm Calm - N/A   Clear
5:15 AM 36.3 °F - 36.3 °F 100% 30.20 in 7.0 mi Calm Calm - N/A   Clear
5:35 AM 36.5 °F - 36.5 °F 100% 30.21 in 7.0 mi Calm Calm - N/A   Clear
5:55 AM 36.7 °F - 36.7 °F 100% 30.21 in 10.0 mi Calm Calm - N/A   Clear
6:15 AM 36.3 °F - 36.3 °F 100% 30.22 in 10.0 mi Calm Calm - N/A   Clear
6:55 AM 35.2 °F - 35.2 °F 100% 30.23 in 10.0 mi Calm Calm - N/A   Clear
7:15 AM 35.6 °F - 35.6 °F 100% 30.23 in 7.0 mi Calm Calm - N/A   Clear
7:35 AM 35.4 °F - 35.4 °F 100% 30.24 in 7.0 mi Calm Calm - N/A   Clear
7:55 AM 35.6 °F 31.7 °F 35.6 °F 100% 30.25 in 7.0 mi NNE 4.6 mph - N/A   Clear
8:15 AM 39.7 °F - 39.7 °F 100% 30.25 in 10.0 mi Calm Calm - N/A   Clear
8:35 AM 43.9 °F - 43.9 °F 100% 30.25 in 10.0 mi Calm Calm - N/A   Clear
8:55 AM 46.6 °F - 45.0 °F 94% 30.26 in 10.0 mi NNE 13.8 mph - N/A   Clear
9:15 AM 47.5 °F - 42.4 °F 83% 30.27 in 10.0 mi NNE 8.1 mph - N/A   Clear
9:35 AM 48.2 °F - 42.3 °F 80% 30.28 in 10.0 mi NNE 9.2 mph - N/A   Clear
9:55 AM 48.0 °F - 41.4 °F 78% 30.29 in 10.0 mi North 9.2 mph - N/A   Clear
10:15 AM 48.4 °F - 39.4 °F 71% 30.30 in 10.0 mi NNE 9.2 mph - N/A   Clear
10:35 AM 49.1 °F - 39.2 °F 69% 30.31 in 10.0 mi North 12.7 mph - N/A   Mostly Cloudy
10:55 AM 48.2 °F - 38.3 °F 69% 30.31 in 10.0 mi North 11.5 mph - N/A   Overcast
11:15 AM 49.3 °F - 37.0 °F 63% 30.32 in 10.0 mi North 9.2 mph - N/A   Mostly Cloudy
11:35 AM 49.3 °F - 35.8 °F 60% 30.32 in 10.0 mi NE 9.2 mph 16.1 mph N/A   Mostly Cloudy
11:55 AM 49.5 °F - 35.6 °F 59% 30.32 in 10.0 mi NE 11.5 mph 16.1 mph N/A   Overcast
12:15 PM 50.0 °F - 35.6 °F 58% 30.31 in 10.0 mi NNE 11.5 mph - N/A   Overcast
12:35 PM 49.1 °F - 33.8 °F 56% 30.31 in 10.0 mi NNE 12.7 mph 17.3 mph N/A   Overcast
12:55 PM 48.6 °F - 32.7 °F 54% 30.31 in 10.0 mi NE 9.2 mph - N/A   Overcast
1:15 PM 48.2 °F - 32.0 °F 54% 30.31 in 10.0 mi ENE 10.4 mph - N/A   Overcast
1:35 PM 50.0 °F - 31.6 °F 49% 30.30 in 10.0 mi NNE 9.2 mph - N/A   Mostly Cloudy
1:55 PM 50.7 °F - 30.9 °F 47% 30.30 in 10.0 mi ENE 8.1 mph - N/A   Overcast
2:15 PM 50.4 °F - 30.6 °F 47% 30.30 in 10.0 mi East 9.2 mph - N/A   Overcast
2:35 PM 52.0 °F - 30.9 °F 45% 30.30 in 10.0 mi East 4.6 mph - N/A   Mostly Cloudy
2:55 PM 51.4 °F - 30.4 °F 44% 30.30 in 10.0 mi NNE 9.2 mph - N/A   Scattered Clouds
3:15 PM 51.6 °F - 30.6 °F 45% 30.30 in 10.0 mi ENE 6.9 mph - N/A   Mostly Cloudy
3:35 PM 50.7 °F - 30.0 °F 45% 30.30 in 10.0 mi NE 5.8 mph - N/A   Mostly Cloudy
3:55 PM 51.1 °F - 30.7 °F 46% 30.30 in 10.0 mi NE 3.5 mph - N/A   Overcast
4:15 PM 51.6 °F - 29.7 °F 43% 30.30 in 10.0 mi ENE 4.6 mph - N/A   Overcast
4:35 PM 51.1 °F - 30.2 °F 45% 30.30 in 10.0 mi NE 5.8 mph - N/A   Overcast
4:55 PM 50.9 °F - 30.2 °F 45% 30.29 in 10.0 mi NE 5.8 mph - N/A   Overcast
5:15 PM 50.0 °F - 30.9 °F 48% 30.29 in 10.0 mi ENE 3.5 mph - N/A   Overcast
5:35 PM 48.2 °F - 31.3 °F 52% 30.29 in 10.0 mi NE 3.5 mph - N/A   Scattered Clouds
5:55 PM 46.9 °F - 31.1 °F 54% 30.29 in 10.0 mi Calm Calm - N/A   Clear
6:15 PM 46.0 °F 44.8 °F 30.2 °F 54% 30.29 in 10.0 mi ENE 3.5 mph - N/A   Clear
6:35 PM 45.1 °F 43.7 °F 29.7 °F 55% 30.29 in 10.0 mi ENE 3.5 mph - N/A   Scattered Clouds
6:55 PM 43.9 °F 42.3 °F 30.2 °F 59% 30.28 in 10.0 mi ENE 3.5 mph - N/A   Scattered Clouds
7:15 PM 43.7 °F 42.1 °F 29.3 °F 57% 30.28 in 10.0 mi NE 3.5 mph - N/A   Clear
7:35 PM 42.3 °F - 30.2 °F 62% 30.29 in 10.0 mi Calm Calm - N/A   Clear
7:55 PM 41.0 °F - 31.3 °F 68% 30.29 in 10.0 mi Calm Calm - N/A   Scattered Clouds
8:15 PM 42.3 °F - 31.5 °F 66% 30.30 in 10.0 mi Calm Calm - N/A   Mostly Cloudy
8:35 PM 41.4 °F - 32.4 °F 70% 30.30 in 10.0 mi Calm Calm - N/A   Scattered Clouds
8:55 PM 39.7 °F - 33.3 °F 78% 30.29 in 10.0 mi Calm Calm - N/A   Scattered Clouds
9:15 PM 38.5 °F - 33.4 °F 82% 30.30 in 10.0 mi Calm Calm - N/A   Scattered Clouds
9:35 PM 39.4 °F 37.2 °F 32.0 °F 75% 30.30 in 10.0 mi NE 3.5 mph - N/A   Scattered Clouds
9:55 PM 39.4 °F - 32.0 °F 75% 30.31 in 10.0 mi Calm Calm - N/A   Scattered Clouds
10:15 PM 40.5 °F 38.4 °F 30.7 °F 68% 30.32 in 10.0 mi NNE 3.5 mph - N/A   Scattered Clouds
10:35 PM 39.7 °F 37.6 °F 30.6 °F 70% 30.32 in 10.0 mi NNE 3.5 mph - N/A   Scattered Clouds
10:55 PM 39.4 °F 36.1 °F 30.2 °F 70% 30.32 in 10.0 mi NNE 4.6 mph - N/A   Scattered Clouds
11:15 PM 39.4 °F 35.2 °F 29.7 °F 68% 30.32 in 10.0 mi NE 5.8 mph - N/A   Scattered Clouds
11:35 PM 39.2 °F 35.0 °F 28.9 °F 67% 30.32 in 10.0 mi NE 5.8 mph - N/A   Clear
11:55 PM 38.7 °F 34.3 °F 29.1 °F 69% 30.32 in 10.0 mi NE 5.8 mph - N/A   Clear